SERVIS 2 DEB, 43393

Orbit data source: Space-Track

SERVIS 2 DEB, 43393 is space debris in SSO originally from a launch on Wed, 02 Jun 2010 UTC launched from the Plesetsk Missile And Space Complex (PKMTR). Debris objects in space refer to the collection of defunct objects orbiting the Earth. Examples of debris include non-operational satellites, rocket bodies, and fragments generated from explosions, collisions, or faulty payload assembly.

Loading next visibility...
SERVIS 2 DEB details
Identifier
43393, 2010-023C
Orbit
SSO
Last TLE update1 day ago
Origin
Flag of CISJ-spacesystems (CIS)
ManufacturerMELCO
MissionSpacecraft
Bus & MotorUnknown
MassUnknown
Launch date (UTC)
2010-06-02 (15 years ago)
Launch vehicleUnknown
Launch site
Plesetsk Missile And Space Complex (PKMTR)
Object type
Payload
Rocket body
Debris
Shape & HBRUnknown
Radar Cross SectionSmall (<0.1 m²)

Expand to show TLE details & history

TLE from 1 day ago
0 SERVIS 2 DEB
1 43393U 10023C   24360.56809130  .00009931  00000-0  17898-1 0  9991
2 43393 100.6942 309.6189 0004658 303.5901  56.4780 13.41488525538081
Epoch: 2024-12-25T13:38Z
Definitive object data (Epoch: 2024-12-25T13:38:03.088Z)
Latitude-0.00001°
Longitude10.54606°
Altitude1,104.554 km
Speed7.301 km/s
True Right ascension20h 38m 28s
True Declination0° 00' 00"
Sunlit
Object was in daylight at TLE epoch
Visualization TLE readout
Latitude-70.66258°
Longitude44.003°
Altitude1,126.499 km
Speed7.291 km/s
Apparent Right ascension00h 45m 34s
Apparent Declination-58° 01' 39"
Sunlit
Object is in daylight
Visualization observer readout
Local Sidereal Time13:41:25
Azimuth158.293° S
Elevation-69.794°
Doppler factor1
Orbital elements
Apogee altitude1,104.589 km
Perigee altitude1,097.622 km
Semi-major axis7,479.243 km
Eccentricity0.0004658
Inclination100.6942°
RAAN309.6189°
Arg. of periapsis303.5901°
True anomaly56.52251°
Mean anomaly56.478°
Eccentric anomaly56.50026°
Mean motion3.3555 °/min
BSTAR0.017898
Orbital period107.29 mins
Loading maneuver chart data...
Loading historical data...
Loading historical data...
Loading historical data...
Loading historical data...
Loading historical data...
Loading historical data...
Loading historical data...
Other satellites on launch #23 in the year 2010 (2010-06-02 UTC)

SERVIS 2 DEB Visibility forecast

Observer location: undefined°, undefined

Span
Click to sort rows by Start time (UTC) header in descending order
Start Az.
Max El. time (UTC)
Max El. Az.
Max El.
End time (UTC)
End Az.
12 mins2024-12-26 20:10:35.897Z143.379° SSE2024-12-26 20:16:35.897Z62.017° ENE40.121°2024-12-26 20:22:35.897Z352.774° N
9 mins2024-12-26 21:58:35.897Z222.417° SW2024-12-26 22:02:35.897Z267.296° W22.323°2024-12-26 22:07:35.897Z316.716° NNW
11 mins2024-12-27 09:12:35.897Z33.399° NE2024-12-27 09:17:35.897Z100.984° ESE36.079°2024-12-27 09:23:35.897Z172.252° S
10 mins2024-12-27 10:58:35.897Z349.89° N2024-12-27 11:02:35.897Z304.532° NW27.565°2024-12-27 11:08:35.897Z239.282° WSW
|